Time,TemperatureF,DewpointF,PressureIn,WindDirection,WindDirectionDegrees,WindSpeedMPH,WindSpeedGustMPH,Humidity,HourlyPrecipIn,Conditions,Clouds,dailyrainin,SoftwareType,DateUTC
2013-01-14 00:00:00,63.5,58.0,29.68,ENE,68,0.2,5.4,82,0.00,,,0.01,WUHU216HW,2013-01-14 05:00:00,
2013-01-14 00:01:00,63.5,58.0,29.68,NNE,23,1.1,5.4,82,0.00,,,0.01,WUHU216HW,2013-01-14 05:01:00,
2013-01-14 00:02:00,63.5,58.0,29.68,WSW,248,1.1,3.6,82,0.00,,,0.00,WUHU216HW,2013-01-14 05:02:00,
2013-01-14 00:03:00,63.5,58.0,29.68,WSW,248,1.1,3.6,82,0.00,,,0.00,WUHU216HW,2013-01-14 05:03:00,
2013-01-14 00:08:00,63.4,57.8,29.68,SW,225,4.7,4.9,82,0.00,,,0.00,WUHU216HW,2013-01-14 05:08:00,
2013-01-14 00:13:00,63.4,57.8,29.68,SSW,203,3.1,4.9,82,0.00,,,0.00,WUHU216HW,2013-01-14 05:13:00,
2013-01-14 00:18:00,63.4,57.8,29.68,South,180,0.0,3.1,82,0.00,,,0.00,WUHU216HW,2013-01-14 05:18:00,
2013-01-14 00:23:00,63.4,57.8,29.68,SSW,203,3.6,3.6,82,0.00,,,0.00,WUHU216HW,2013-01-14 05:23:00,
2013-01-14 00:28:00,63.4,57.8,29.68,SW,225,0.2,3.6,82,0.00,,,0.00,WUHU216HW,2013-01-14 05:28:00,
2013-01-14 00:33:00,63.4,57.8,29.68,SE,135,0.4,2.0,82,0.00,,,0.00,WUHU216HW,2013-01-14 05:33:00,
2013-01-14 00:38:00,63.2,57.6,29.68,NNW,338,0.0,1.3,82,0.00,,,0.00,WUHU216HW,2013-01-14 05:38:00,
2013-01-14 00:43:00,63.2,57.6,29.67,South,180,0.9,1.6,82,0.00,,,0.00,WUHU216HW,2013-01-14 05:43:00,
2013-01-14 00:48:00,63.0,57.7,29.68,SW,225,0.9,1.6,83,0.00,,,0.00,WUHU216HW,2013-01-14 05:48:00,
2013-01-14 00:53:00,63.0,57.7,29.68,SW,225,0.2,0.9,83,0.00,,,0.00,WUHU216HW,2013-01-14 05:53:00,
2013-01-14 00:58:00,63.0,57.7,29.68,SSW,203,0.2,1.1,83,0.00,,,0.00,WUHU216HW,2013-01-14 05:58:00,
2013-01-14 01:03:00,63.0,57.7,29.68,SW,225,2.2,2.2,83,0.00,,,0.00,WUHU216HW,2013-01-14 06:03:00,
2013-01-14 01:08:00,62.8,57.5,29.68,SSW,203,0.0,2.2,83,0.00,,,0.00,WUHU216HW,2013-01-14 06:08:00,
2013-01-14 01:13:00,62.8,57.5,29.68,SSE,158,0.0,0.4,83,0.00,,,0.00,WUHU216HW,2013-01-14 06:13:00,
2013-01-14 01:18:00,62.6,57.3,29.68,SSW,203,0.0,0.9,83,0.00,,,0.00,WUHU216HW,2013-01-14 06:18:00,
2013-01-14 01:23:00,62.5,57.3,29.68,East,90,0.7,0.9,83,0.00,,,0.00,WUHU216HW,2013-01-14 06:23:00,
2013-01-14 01:28:00,62.5,57.3,29.69,SSW,203,1.1,1.3,83,0.00,,,0.00,WUHU216HW,2013-01-14 06:28:00,
2013-01-14 01:33:00,62.3,57.1,29.69,SSE,158,0.7,1.3,83,0.00,,,0.00,WUHU216HW,2013-01-14 06:33:00,
2013-01-14 01:38:00,62.3,57.1,29.69,SW,225,0.4,1.1,83,0.00,,,0.00,WUHU216HW,2013-01-14 06:38:00,
2013-01-14 01:43:00,62.3,57.1,29.69,South,180,1.3,1.3,83,0.00,,,0.00,WUHU216HW,2013-01-14 06:43:00,
2013-01-14 01:48:00,62.3,57.3,29.69,WSW,248,0.7,1.8,84,0.00,,,0.00,WUHU216HW,2013-01-14 06:48:00,
2013-01-14 01:53:00,62.3,57.3,29.69,SE,135,0.7,1.8,84,0.00,,,0.00,WUHU216HW,2013-01-14 06:53:00,
2013-01-14 01:58:00,62.1,57.3,29.69,South,180,0.2,1.3,84,0.00,,,0.00,WUHU216HW,2013-01-14 06:58:00,
2013-01-14 02:03:00,62.1,57.3,29.69,SW,225,0.2,2.0,84,0.00,,,0.00,WUHU216HW,2013-01-14 07:03:00,
2013-01-14 02:08:00,62.1,57.3,29.69,SSE,158,1.1,2.0,84,0.00,,,0.00,WUHU216HW,2013-01-14 07:08:00,
2013-01-14 02:13:00,61.9,57.1,29.69,SSW,203,0.4,1.8,84,0.00,,,0.00,WUHU216HW,2013-01-14 07:13:00,
2013-01-14 02:18:00,61.9,57.3,29.69,East,90,0.0,1.8,85,0.00,,,0.00,WUHU216HW,2013-01-14 07:18:00,
2013-01-14 02:23:00,61.9,57.1,29.69,South,180,2.0,3.4,84,0.00,,,0.00,WUHU216HW,2013-01-14 07:23:00,
2013-01-14 02:28:00,61.9,57.3,29.69,ESE,113,0.9,3.4,85,0.00,,,0.00,WUHU216HW,2013-01-14 07:28:00,
2013-01-14 02:33:00,61.9,57.3,29.69,SE,135,0.4,1.3,85,0.00,,,0.00,WUHU216HW,2013-01-14 07:33:00,
2013-01-14 02:38:00,61.7,57.2,29.70,SSW,203,0.2,1.3,85,0.00,,,0.00,WUHU216HW,2013-01-14 07:38:00,
2013-01-14 02:43:00,61.7,57.2,29.70,SSE,158,0.2,1.1,85,0.00,,,0.00,WUHU216HW,2013-01-14 07:43:00,
2013-01-14 02:48:00,61.7,57.2,29.69,ESE,113,0.4,1.1,85,0.00,,,0.00,WUHU216HW,2013-01-14 07:48:00,
2013-01-14 02:53:00,61.7,57.2,29.69,South,180,0.4,1.3,85,0.00,,,0.00,WUHU216HW,2013-01-14 07:53:00,
2013-01-14 02:58:00,61.7,57.2,29.69,SE,135,0.4,1.3,85,0.00,,,0.00,WUHU216HW,2013-01-14 07:58:00,
2013-01-14 03:03:00,61.6,57.1,29.69,SE,135,1.3,1.6,85,0.00,,,0.00,WUHU216HW,2013-01-14 08:03:00,
2013-01-14 03:08:00,61.6,57.1,29.69,ESE,113,0.9,1.6,85,0.00,,,0.00,WUHU216HW,2013-01-14 08:08:00,
2013-01-14 03:13:00,61.6,57.1,29.69,South,180,1.1,1.8,85,0.00,,,0.00,WUHU216HW,2013-01-14 08:13:00,
2013-01-14 03:18:00,61.6,57.3,29.70,East,90,0.2,1.8,86,0.00,,,0.00,WUHU216HW,2013-01-14 08:18:00,
2013-01-14 03:23:00,61.6,57.3,29.69,SE,135,1.1,1.6,86,0.00,,,0.00,WUHU216HW,2013-01-14 08:23:00,
2013-01-14 03:28:00,61.6,57.3,29.69,NNW,338,0.7,2.2,86,0.00,,,0.00,WUHU216HW,2013-01-14 08:28:00,
2013-01-14 03:33:00,61.6,57.3,29.69,South,180,0.9,2.2,86,0.00,,,0.00,WUHU216HW,2013-01-14 08:33:00,
2013-01-14 03:38:00,61.6,57.3,29.69,SE,135,0.0,1.8,86,0.00,,,0.00,WUHU216HW,2013-01-14 08:38:00,
2013-01-14 03:43:00,61.6,57.3,29.69,South,180,0.0,1.8,86,0.00,,,0.00,WUHU216HW,2013-01-14 08:43:00,
2013-01-14 03:48:00,61.7,57.5,29.69,SSE,158,1.3,2.5,86,0.00,,,0.00,WUHU216HW,2013-01-14 08:48:00,
2013-01-14 03:53:00,61.7,57.5,29.69,WSW,248,0.0,2.5,86,0.00,,,0.00,WUHU216HW,2013-01-14 08:53:00,
2013-01-14 03:58:00,61.6,57.3,29.69,SE,135,0.2,1.8,86,0.00,,,0.00,WUHU216HW,2013-01-14 08:58:00,
2013-01-14 04:03:00,61.6,57.3,29.69,South,180,0.7,1.3,86,0.00,,,0.00,WUHU216HW,2013-01-14 09:03:00,
2013-01-14 04:08:00,61.6,57.3,29.69,SE,135,0.2,0.7,86,0.00,,,0.00,WUHU216HW,2013-01-14 09:08:00,
2013-01-14 04:13:00,61.6,57.7,29.69,SSE,158,0.4,2.0,87,0.00,,,0.00,WUHU216HW,2013-01-14 09:13:00,
2013-01-14 04:18:00,61.6,57.7,29.69,SSW,203,0.4,2.0,87,0.00,,,0.00,WUHU216HW,2013-01-14 09:18:00,
2013-01-14 04:23:00,61.4,57.5,29.69,SSE,158,0.0,1.8,87,0.00,,,0.00,WUHU216HW,2013-01-14 09:23:00,
2013-01-14 04:28:00,61.4,57.5,29.69,WSW,248,0.2,1.6,87,0.00,,,0.00,WUHU216HW,2013-01-14 09:28:00,
2013-01-14 04:33:00,61.2,57.3,29.68,SW,225,0.0,1.3,87,0.00,,,0.00,WUHU216HW,2013-01-14 09:33:00,
2013-01-14 04:38:00,61.2,57.3,29.69,SSW,203,0.9,1.3,87,0.00,,,0.00,WUHU216HW,2013-01-14 09:38:00,
2013-01-14 04:43:00,61.2,57.3,29.69,SW,225,0.4,0.9,87,0.00,,,0.00,WUHU216HW,2013-01-14 09:43:00,
2013-01-14 04:48:00,61.2,57.3,29.69,WSW,248,0.4,0.9,87,0.00,,,0.00,WUHU216HW,2013-01-14 09:48:00,
2013-01-14 04:53:00,61.2,57.3,29.69,WSW,248,0.0,0.9,87,0.00,,,0.00,WUHU216HW,2013-01-14 09:53:00,
2013-01-14 04:58:00,61.0,57.2,29.69,SW,225,0.9,0.9,87,0.00,,,0.00,WUHU216HW,2013-01-14 09:58:00,
2013-01-14 05:03:00,60.8,57.0,29.68,SW,225,0.0,0.9,87,0.00,,,0.00,WUHU216HW,2013-01-14 10:03:00,
2013-01-14 05:08:00,60.8,57.0,29.68,SW,225,0.0,0.2,87,0.00,,,0.00,WUHU216HW,2013-01-14 10:08:00,
2013-01-14 05:13:00,60.8,57.0,29.68,SW,225,0.0,0.0,87,0.00,,,0.00,WUHU216HW,2013-01-14 10:13:00,
2013-01-14 05:18:00,60.8,57.0,29.68,SW,225,0.0,0.0,87,0.00,,,0.00,WUHU216HW,2013-01-14 10:18:00,
2013-01-14 05:23:00,60.7,56.8,29.68,SSW,203,0.0,0.4,87,0.00,,,0.00,WUHU216HW,2013-01-14 10:23:00,
2013-01-14 05:28:00,60.7,57.2,29.68,South,180,0.0,0.4,88,0.00,,,0.00,WUHU216HW,2013-01-14 10:28:00,
2013-01-14 05:33:00,60.5,57.0,29.68,SE,135,0.0,0.0,88,0.00,,,0.00,WUHU216HW,2013-01-14 10:33:00,
2013-01-14 05:38:00,60.5,57.0,29.67,SE,135,0.0,0.0,88,0.00,,,0.00,WUHU216HW,2013-01-14 10:38:00,
2013-01-14 05:43:00,60.3,56.8,29.67,SE,135,0.4,0.9,88,0.00,,,0.00,WUHU216HW,2013-01-14 10:43:00,
2013-01-14 05:48:00,60.3,56.8,29.67,SE,135,0.2,0.9,88,0.01,,,0.01,WUHU216HW,2013-01-14 10:48:00,
2013-01-14 05:53:00,60.3,56.8,29.67,ESE,113,1.1,1.1,88,0.01,,,0.01,WUHU216HW,2013-01-14 10:53:00,
2013-01-14 05:58:00,60.1,56.6,29.67,ESE,113,0.0,1.1,88,0.01,,,0.01,WUHU216HW,2013-01-14 10:58:00,
2013-01-14 06:03:00,60.1,56.9,29.67,SSW,203,0.0,0.9,89,0.01,,,0.01,WUHU216HW,2013-01-14 11:03:00,
2013-01-14 06:08:00,60.1,56.9,29.67,ESE,113,0.2,0.9,89,0.01,,,0.01,WUHU216HW,2013-01-14 11:08:00,
2013-01-14 06:13:00,59.9,56.7,29.67,ESE,113,0.4,1.1,89,0.01,,,0.01,WUHU216HW,2013-01-14 11:13:00,
2013-01-14 06:18:00,59.9,56.7,29.67,SE,135,0.4,1.1,89,0.01,,,0.01,WUHU216HW,2013-01-14 11:18:00,
2013-01-14 06:23:00,59.8,56.5,29.67,SE,135,0.7,1.1,89,0.01,,,0.01,WUHU216HW,2013-01-14 11:23:00,
2013-01-14 06:28:00,59.8,56.9,29.67,WNW,293,0.2,1.3,90,0.01,,,0.01,WUHU216HW,2013-01-14 11:28:00,
2013-01-14 06:33:00,59.8,56.9,29.68,SSW,203,1.8,1.8,90,0.01,,,0.01,WUHU216HW,2013-01-14 11:33:00,
2013-01-14 06:38:00,59.9,57.1,29.68,SSW,203,0.2,1.8,90,0.00,,,0.01,WUHU216HW,2013-01-14 11:38:00,
2013-01-14 06:43:00,59.9,57.1,29.69,ENE,68,0.9,1.6,90,0.00,,,0.01,WUHU216HW,2013-01-14 11:43:00,
2013-01-14 06:48:00,60.1,57.2,29.69,NE,45,1.8,2.2,90,0.00,,,0.01,WUHU216HW,2013-01-14 11:48:00,
2013-01-14 06:53:00,60.1,57.2,29.69,SW,225,1.3,2.9,90,0.00,,,0.01,WUHU216HW,2013-01-14 11:53:00,
2013-01-14 06:58:00,60.3,57.7,29.69,South,180,1.1,2.9,91,0.00,,,0.01,WUHU216HW,2013-01-14 11:58:00,
2013-01-14 07:03:00,60.5,57.6,29.69,SE,135,0.2,2.7,90,0.00,,,0.01,WUHU216HW,2013-01-14 12:03:00,
2013-01-14 07:08:00,60.5,57.6,29.69,SSE,158,0.4,2.5,90,0.00,,,0.01,WUHU216HW,2013-01-14 12:08:00,
2013-01-14 07:13:00,60.5,57.6,29.69,SSE,158,1.1,6.0,90,0.00,,,0.01,WUHU216HW,2013-01-14 12:13:00,
2013-01-14 07:18:00,60.7,57.8,29.69,SE,135,0.7,6.0,90,0.00,,,0.01,WUHU216HW,2013-01-14 12:18:00,
2013-01-14 07:23:00,60.7,57.8,29.69,WSW,248,0.9,1.8,90,0.00,,,0.01,WUHU216HW,2013-01-14 12:23:00,
2013-01-14 07:28:00,60.7,57.8,29.69,ESE,113,0.9,1.8,90,0.00,,,0.01,WUHU216HW,2013-01-14 12:28:00,
2013-01-14 07:33:00,60.7,57.8,29.69,SE,135,0.0,1.6,90,0.00,,,0.01,WUHU216HW,2013-01-14 12:33:00,
2013-01-14 07:38:00,60.7,57.8,29.69,ESE,113,0.9,1.6,90,0.00,,,0.01,WUHU216HW,2013-01-14 12:38:00,
2013-01-14 07:43:00,60.7,57.8,29.70,SE,135,1.8,2.7,90,0.00,,,0.01,WUHU216HW,2013-01-14 12:43:00,
2013-01-14 07:48:00,60.7,57.8,29.70,ESE,113,0.4,3.4,90,0.00,,,0.01,WUHU216HW,2013-01-14 12:48:00,
2013-01-14 07:53:00,60.7,57.8,29.70,South,180,0.0,3.4,90,0.00,,,0.01,WUHU216HW,2013-01-14 12:53:00,
2013-01-14 07:58:00,60.8,58.0,29.70,SSW,203,2.5,2.5,90,0.00,,,0.01,WUHU216HW,2013-01-14 12:58:00,
2013-01-14 08:03:00,60.8,58.2,29.70,SW,225,1.8,2.5,91,0.00,,,0.01,WUHU216HW,2013-01-14 13:03:00,
2013-01-14 08:08:00,60.8,58.2,29.70,South,180,3.1,3.1,91,0.00,,,0.01,WUHU216HW,2013-01-14 13:08:00,
2013-01-14 08:13:00,60.8,58.2,29.71,SSE,158,3.8,3.8,91,0.00,,,0.01,WUHU216HW,2013-01-14 13:13:00,
2013-01-14 08:18:00,61.0,58.4,29.71,ESE,113,0.2,4.5,91,0.00,,,0.01,WUHU216HW,2013-01-14 13:18:00,
2013-01-14 08:23:00,61.0,58.4,29.71,SE,135,1.8,4.5,91,0.00,,,0.01,WUHU216HW,2013-01-14 13:23:00,
2013-01-14 08:28:00,61.2,58.3,29.71,SE,135,2.5,2.5,90,0.00,,,0.01,WUHU216HW,2013-01-14 13:28:00,
2013-01-14 08:33:00,61.2,58.3,29.71,South,180,1.6,2.5,90,0.00,,,0.01,WUHU216HW,2013-01-14 13:33:00,
2013-01-14 08:38:00,61.2,58.3,29.71,SSE,158,3.4,3.4,90,0.00,,,0.01,WUHU216HW,2013-01-14 13:38:00,
2013-01-14 08:43:00,61.2,58.3,29.72,SSW,203,1.1,3.4,90,0.00,,,0.01,WUHU216HW,2013-01-14 13:43:00,
2013-01-14 08:48:00,61.2,58.3,29.72,SSW,203,0.4,1.8,90,0.00,,,0.01,WUHU216HW,2013-01-14 13:48:00,
2013-01-14 08:53:00,61.2,58.3,29.72,SSE,158,0.7,1.8,90,0.01,,,0.02,WUHU216HW,2013-01-14 13:53:00,
2013-01-14 08:58:00,61.2,58.3,29.72,SSW,203,1.1,2.2,90,0.01,,,0.02,WUHU216HW,2013-01-14 13:58:00,
2013-01-14 09:03:00,61.2,58.6,29.72,South,180,2.5,2.5,91,0.01,,,0.02,WUHU216HW,2013-01-14 14:03:00,
2013-01-14 09:08:00,61.4,58.8,29.72,SE,135,1.6,3.6,91,0.01,,,0.02,WUHU216HW,2013-01-14 14:08:00,
2013-01-14 09:13:00,61.6,59.0,29.73,SSW,203,1.1,3.6,91,0.01,,,0.02,WUHU216HW,2013-01-14 14:13:00,
2013-01-14 09:18:00,61.6,59.0,29.73,SSW,203,0.9,1.8,91,0.02,,,0.03,WUHU216HW,2013-01-14 14:18:00,
2013-01-14 09:23:00,61.6,59.0,29.73,West,270,0.4,1.8,91,0.02,,,0.03,WUHU216HW,2013-01-14 14:23:00,
2013-01-14 09:28:00,61.6,59.0,29.73,SE,135,1.1,2.2,91,0.02,,,0.03,WUHU216HW,2013-01-14 14:28:00,
2013-01-14 09:33:00,61.6,59.0,29.73,SSW,203,0.4,2.9,91,0.03,,,0.03,WUHU216HW,2013-01-14 14:33:00,
2013-01-14 09:38:00,61.4,58.8,29.73,SSW,203,0.7,2.9,91,0.03,,,0.04,WUHU216HW,2013-01-14 14:38:00,
2013-01-14 09:43:00,61.6,59.0,29.73,SE,135,0.7,1.8,91,0.03,,,0.04,WUHU216HW,2013-01-14 14:43:00,
2013-01-14 09:48:00,61.4,58.8,29.73,SE,135,1.3,1.8,91,0.02,,,0.04,WUHU216HW,2013-01-14 14:48:00,
2013-01-14 09:53:00,61.4,58.8,29.73,SE,135,0.4,1.8,91,0.03,,,0.05,WUHU216HW,2013-01-14 14:53:00,
2013-01-14 09:58:00,61.4,58.8,29.73,SSE,158,0.4,1.1,91,0.06,,,0.07,WUHU216HW,2013-01-14 14:58:00,
2013-01-14 10:03:00,61.2,58.6,29.73,SE,135,1.6,1.6,91,0.07,,,0.09,WUHU216HW,2013-01-14 15:03:00,
2013-01-14 10:08:00,61.2,58.6,29.73,ESE,113,1.6,2.0,91,0.07,,,0.09,WUHU216HW,2013-01-14 15:08:00,
2013-01-14 10:13:00,61.2,58.9,29.73,SSE,158,1.6,2.0,92,0.07,,,0.10,WUHU216HW,2013-01-14 15:13:00,
2013-01-14 10:18:00,61.0,58.7,29.73,ESE,113,1.8,4.0,92,0.07,,,0.10,WUHU216HW,2013-01-14 15:18:00,
2013-01-14 10:23:00,61.0,58.7,29.72,SE,135,1.6,4.0,92,0.07,,,0.10,WUHU216HW,2013-01-14 15:23:00,
2013-01-14 10:28:00,61.0,58.7,29.72,SSE,158,1.6,2.7,92,0.06,,,0.10,WUHU216HW,2013-01-14 15:28:00,
2013-01-14 10:33:00,61.0,58.7,29.72,SSE,158,0.4,2.7,92,0.06,,,0.10,WUHU216HW,2013-01-14 15:33:00,
2013-01-14 10:38:00,61.0,58.7,29.72,SSW,203,1.1,1.8,92,0.06,,,0.10,WUHU216HW,2013-01-14 15:38:00,
2013-01-14 10:43:00,61.0,58.7,29.72,SSE,158,0.7,3.1,92,0.05,,,0.10,WUHU216HW,2013-01-14 15:43:00,
2013-01-14 10:48:00,61.0,58.7,29.72,South,180,1.6,3.1,92,0.05,,,0.10,WUHU216HW,2013-01-14 15:48:00,
2013-01-14 10:53:00,61.0,58.7,29.72,ESE,113,1.6,2.2,92,0.03,,,0.10,WUHU216HW,2013-01-14 15:53:00,
2013-01-14 10:58:00,61.2,58.9,29.72,SE,135,1.3,1.8,92,0.01,,,0.10,WUHU216HW,2013-01-14 15:58:00,
2013-01-14 11:03:00,61.2,58.9,29.72,SSW,203,1.8,2.2,92,0.01,,,0.10,WUHU216HW,2013-01-14 16:03:00,
2013-01-14 11:08:00,61.4,59.0,29.71,SSW,203,1.8,2.2,92,0.01,,,0.10,WUHU216HW,2013-01-14 16:08:00,
2013-01-14 11:13:00,61.6,59.2,29.71,ENE,68,1.1,1.8,92,0.00,,,0.10,WUHU216HW,2013-01-14 16:13:00,
2013-01-14 11:18:00,61.6,59.2,29.71,South,180,1.1,1.8,92,0.00,,,0.10,WUHU216HW,2013-01-14 16:18:00,
2013-01-14 11:23:00,61.7,59.4,29.71,SSE,158,1.8,1.8,92,0.00,,,0.10,WUHU216HW,2013-01-14 16:23:00,
2013-01-14 11:28:00,61.7,59.4,29.71,SSW,203,1.8,2.2,92,0.00,,,0.10,WUHU216HW,2013-01-14 16:28:00,
2013-01-14 11:33:00,61.7,59.4,29.71,SW,225,1.8,2.7,92,0.00,,,0.10,WUHU216HW,2013-01-14 16:33:00,
2013-01-14 11:38:00,61.7,59.4,29.71,South,180,1.6,3.4,92,0.00,,,0.10,WUHU216HW,2013-01-14 16:38:00,
2013-01-14 11:43:00,61.7,59.4,29.71,SE,135,1.8,3.4,92,0.00,,,0.10,WUHU216HW,2013-01-14 16:43:00,
2013-01-14 11:48:00,61.7,59.4,29.70,WSW,248,1.1,2.5,92,0.00,,,0.10,WUHU216HW,2013-01-14 16:48:00,
2013-01-14 11:53:00,61.7,59.4,29.70,SW,225,1.1,2.5,92,0.00,,,0.10,WUHU216HW,2013-01-14 16:53:00,
2013-01-14 11:58:00,61.7,59.4,29.70,West,270,1.1,2.5,92,0.00,,,0.10,WUHU216HW,2013-01-14 16:58:00,
2013-01-14 12:03:00,61.7,59.4,29.69,NNW,338,1.3,2.9,92,0.00,,,0.10,WUHU216HW,2013-01-14 17:03:00,
2013-01-14 12:08:00,61.9,59.6,29.69,SW,225,2.0,2.9,92,0.00,,,0.10,WUHU216HW,2013-01-14 17:08:00,
2013-01-14 12:13:00,61.9,59.6,29.69,SW,225,2.9,2.9,92,0.00,,,0.10,WUHU216HW,2013-01-14 17:13:00,
2013-01-14 12:18:00,61.9,59.6,29.69,East,90,0.4,2.9,92,0.00,,,0.10,WUHU216HW,2013-01-14 17:18:00,
2013-01-14 12:23:00,62.1,59.8,29.69,SSE,158,1.1,1.8,92,0.00,,,0.10,WUHU216HW,2013-01-14 17:23:00,
2013-01-14 12:28:00,62.1,59.8,29.69,South,180,3.1,3.8,92,0.00,,,0.10,WUHU216HW,2013-01-14 17:28:00,
2013-01-14 12:33:00,62.1,59.8,29.69,SW,225,1.6,3.8,92,0.01,,,0.10,WUHU216HW,2013-01-14 17:33:00,
2013-01-14 12:38:00,62.1,59.8,29.69,WSW,248,2.7,2.7,92,0.01,,,0.11,WUHU216HW,2013-01-14 17:38:00,
2013-01-14 12:43:00,62.3,59.9,29.69,WSW,248,1.3,2.7,92,0.02,,,0.12,WUHU216HW,2013-01-14 17:43:00,
2013-01-14 12:48:00,62.1,59.8,29.69,SSW,203,0.4,1.8,92,0.03,,,0.13,WUHU216HW,2013-01-14 17:48:00,
2013-01-14 12:53:00,62.3,59.9,29.68,West,270,1.3,1.6,92,0.04,,,0.14,WUHU216HW,2013-01-14 17:53:00,
2013-01-14 12:58:00,62.3,59.9,29.69,South,180,0.4,1.3,92,0.04,,,0.14,WUHU216HW,2013-01-14 17:58:00,
2013-01-14 13:03:00,62.3,59.9,29.69,WSW,248,1.6,1.8,92,0.05,,,0.16,WUHU216HW,2013-01-14 18:03:00,
2013-01-14 13:08:00,62.3,59.9,29.69,ESE,113,0.4,2.7,92,0.05,,,0.16,WUHU216HW,2013-01-14 18:08:00,
2013-01-14 13:13:00,62.3,59.9,29.68,West,270,0.9,2.7,92,0.05,,,0.16,WUHU216HW,2013-01-14 18:13:00,
2013-01-14 13:18:00,62.3,59.9,29.68,South,180,1.1,2.7,92,0.05,,,0.16,WUHU216HW,2013-01-14 18:18:00,
2013-01-14 13:23:00,62.3,59.9,29.68,SSE,158,1.1,2.7,92,0.06,,,0.16,WUHU216HW,2013-01-14 18:23:00,
2013-01-14 13:28:00,62.1,59.8,29.68,WSW,248,1.1,1.8,92,0.06,,,0.16,WUHU216HW,2013-01-14 18:28:00,
2013-01-14 13:33:00,62.3,59.9,29.68,SSW,203,1.1,2.0,92,0.06,,,0.18,WUHU216HW,2013-01-14 18:33:00,
2013-01-14 13:38:00,62.3,59.9,29.68,SW,225,0.4,2.0,92,0.06,,,0.18,WUHU216HW,2013-01-14 18:38:00,
2013-01-14 13:43:00,62.3,59.9,29.68,WSW,248,1.1,1.1,92,0.04,,,0.18,WUHU216HW,2013-01-14 18:43:00,
2013-01-14 13:48:00,62.3,59.9,29.68,SSW,203,0.2,2.2,92,0.04,,,0.18,WUHU216HW,2013-01-14 18:48:00,
2013-01-14 13:53:00,62.5,60.1,29.68,WSW,248,1.8,2.2,92,0.04,,,0.18,WUHU216HW,2013-01-14 18:53:00,
2013-01-14 13:58:00,62.5,60.1,29.69,SSW,203,0.4,1.8,92,0.04,,,0.18,WUHU216HW,2013-01-14 18:58:00,
2013-01-14 14:03:00,62.5,60.1,29.69,WSW,248,1.6,1.8,92,0.03,,,0.18,WUHU216HW,2013-01-14 19:03:00,
2013-01-14 14:08:00,62.5,60.1,29.69,SSW,203,0.0,2.0,92,0.03,,,0.18,WUHU216HW,2013-01-14 19:08:00,
2013-01-14 14:13:00,62.5,60.1,29.68,WSW,248,0.0,2.0,92,0.03,,,0.18,WUHU216HW,2013-01-14 19:13:00,
2013-01-14 14:18:00,62.5,60.1,29.69,SW,225,0.2,0.4,92,0.03,,,0.18,WUHU216HW,2013-01-14 19:18:00,
2013-01-14 14:23:00,62.6,60.3,29.69,SW,225,0.0,0.4,92,0.02,,,0.18,WUHU216HW,2013-01-14 19:23:00,
2013-01-14 14:28:00,62.6,60.3,29.69,SW,225,0.0,1.1,92,0.02,,,0.18,WUHU216HW,2013-01-14 19:28:00,
2013-01-14 14:33:00,62.6,60.3,29.69,SW,225,0.0,1.1,92,0.01,,,0.18,WUHU216HW,2013-01-14 19:33:00,
2013-01-14 14:38:00,62.6,60.3,29.69,SW,225,0.0,0.0,92,0.01,,,0.18,WUHU216HW,2013-01-14 19:38:00,
2013-01-14 14:43:00,62.6,60.3,29.69,SW,225,0.0,0.0,92,0.02,,,0.18,WUHU216HW,2013-01-14 19:43:00,
2013-01-14 14:48:00,62.6,60.3,29.69,NW,315,0.4,0.4,92,0.02,,,0.19,WUHU216HW,2013-01-14 19:48:00,
2013-01-14 14:53:00,62.8,60.5,29.70,NW,315,0.0,0.4,92,0.01,,,0.19,WUHU216HW,2013-01-14 19:53:00,
2013-01-14 14:58:00,62.6,60.3,29.70,North,0,1.8,1.8,92,0.01,,,0.19,WUHU216HW,2013-01-14 19:58:00,
2013-01-14 15:03:00,61.9,59.6,29.70,NNE,23,4.9,4.9,92,0.02,,,0.21,WUHU216HW,2013-01-14 20:03:00,
2013-01-14 15:08:00,61.0,58.4,29.70,North,0,2.7,4.9,91,0.02,,,0.21,WUHU216HW,2013-01-14 20:08:00,
2013-01-14 15:13:00,60.7,58.1,29.71,North,0,2.2,3.4,91,0.02,,,0.21,WUHU216HW,2013-01-14 20:13:00,
2013-01-14 15:18:00,60.1,57.2,29.71,North,0,0.7,2.9,90,0.02,,,0.21,WUHU216HW,2013-01-14 20:18:00,
2013-01-14 15:23:00,59.8,56.9,29.70,North,0,0.4,1.8,90,0.03,,,0.21,WUHU216HW,2013-01-14 20:23:00,
2013-01-14 15:28:00,59.4,56.8,29.71,NW,315,1.1,4.0,91,0.03,,,0.21,WUHU216HW,2013-01-14 20:28:00,
2013-01-14 15:33:00,59.2,56.3,29.71,North,0,2.0,4.0,90,0.03,,,0.21,WUHU216HW,2013-01-14 20:33:00,
2013-01-14 15:38:00,59.0,56.4,29.71,North,0,2.5,2.5,91,0.02,,,0.21,WUHU216HW,2013-01-14 20:38:00,
2013-01-14 15:43:00,58.9,56.3,29.71,North,0,1.8,3.1,91,0.02,,,0.21,WUHU216HW,2013-01-14 20:43:00,
2013-01-14 15:48:00,58.7,56.1,29.71,NNE,23,2.7,3.1,91,0.02,,,0.21,WUHU216HW,2013-01-14 20:48:00,
2013-01-14 15:53:00,58.5,55.9,29.71,North,0,1.8,3.6,91,0.02,,,0.21,WUHU216HW,2013-01-14 20:53:00,
2013-01-14 15:58:00,58.3,55.7,29.71,North,0,0.4,3.8,91,0.02,,,0.23,WUHU216HW,2013-01-14 20:58:00,
2013-01-14 16:03:00,58.1,55.3,29.72,North,0,1.1,3.8,90,0.02,,,0.23,WUHU216HW,2013-01-14 21:03:00,
2013-01-14 16:08:00,58.1,55.3,29.72,North,0,0.0,1.3,90,0.02,,,0.23,WUHU216HW,2013-01-14 21:08:00,
2013-01-14 16:13:00,58.1,55.3,29.72,West,270,0.0,0.9,90,0.02,,,0.23,WUHU216HW,2013-01-14 21:13:00,
2013-01-14 16:18:00,58.1,55.3,29.72,NNW,338,0.4,0.9,90,0.01,,,0.23,WUHU216HW,2013-01-14 21:18:00,
2013-01-14 16:23:00,58.1,55.3,29.72,NNW,338,0.4,0.9,90,0.01,,,0.23,WUHU216HW,2013-01-14 21:23:00,
2013-01-14 16:28:00,58.3,55.4,29.72,NNW,338,0.4,0.9,90,0.02,,,0.23,WUHU216HW,2013-01-14 21:28:00,
2013-01-14 16:33:00,58.3,55.4,29.73,NNW,338,0.0,0.4,90,0.02,,,0.23,WUHU216HW,2013-01-14 21:33:00,
2013-01-14 16:38:00,58.3,55.4,29.73,NNW,338,0.0,0.9,90,0.02,,,0.23,WUHU216HW,2013-01-14 21:38:00,
2013-01-14 16:43:00,58.3,55.4,29.73,NW,315,0.2,0.9,90,0.02,,,0.23,WUHU216HW,2013-01-14 21:43:00,
2013-01-14 16:48:00,58.1,55.3,29.73,NNW,338,0.7,0.9,90,0.03,,,0.25,WUHU216HW,2013-01-14 21:48:00,
2013-01-14 16:53:00,58.0,55.1,29.73,NNW,338,0.0,0.7,90,0.03,,,0.25,WUHU216HW,2013-01-14 21:53:00,
2013-01-14 16:58:00,58.0,55.1,29.73,North,0,0.7,1.8,90,0.03,,,0.25,WUHU216HW,2013-01-14 21:58:00,
2013-01-14 17:03:00,58.0,55.1,29.73,North,0,0.4,1.8,90,0.04,,,0.27,WUHU216HW,2013-01-14 22:03:00,
2013-01-14 17:08:00,57.8,54.9,29.74,North,0,1.1,2.5,90,0.05,,,0.28,WUHU216HW,2013-01-14 22:08:00,
2013-01-14 17:13:00,57.8,54.9,29.74,North,0,0.7,2.5,90,0.06,,,0.29,WUHU216HW,2013-01-14 22:13:00,
2013-01-14 17:18:00,57.6,54.7,29.74,North,0,1.1,1.1,90,0.06,,,0.29,WUHU216HW,2013-01-14 22:18:00,
2013-01-14 17:23:00,57.6,54.7,29.74,North,0,2.5,2.5,90,0.07,,,0.30,WUHU216HW,2013-01-14 22:23:00,
2013-01-14 17:28:00,57.4,54.5,29.74,North,0,1.6,2.5,90,0.07,,,0.31,WUHU216HW,2013-01-14 22:28:00,
2013-01-14 17:33:00,57.4,54.8,29.74,NE,45,1.8,2.9,91,0.08,,,0.32,WUHU216HW,2013-01-14 22:33:00,
2013-01-14 17:38:00,57.2,54.6,29.74,East,90,1.8,2.9,91,0.09,,,0.32,WUHU216HW,2013-01-14 22:38:00,
2013-01-14 17:43:00,57.2,54.6,29.74,East,90,1.3,1.8,91,0.10,,,0.32,WUHU216HW,2013-01-14 22:43:00,
2013-01-14 17:48:00,57.2,54.6,29.73,ENE,68,1.8,1.8,91,0.09,,,0.35,WUHU216HW,2013-01-14 22:48:00,
2013-01-14 17:53:00,57.2,54.6,29.73,East,90,1.3,1.8,91,0.10,,,0.36,WUHU216HW,2013-01-14 22:53:00,
2013-01-14 17:58:00,57.2,54.6,29.73,East,90,1.1,1.8,91,0.09,,,0.36,WUHU216HW,2013-01-14 22:58:00,
2013-01-14 18:03:00,57.2,54.6,29.73,ENE,68,0.9,1.8,91,0.09,,,0.36,WUHU216HW,2013-01-14 23:03:00,
2013-01-14 18:08:00,57.4,54.8,29.73,NNE,23,1.3,1.3,91,0.08,,,0.37,WUHU216HW,2013-01-14 23:08:00,
2013-01-14 18:13:00,57.4,54.8,29.73,NNE,23,0.4,1.3,91,0.08,,,0.37,WUHU216HW,2013-01-14 23:13:00,
2013-01-14 18:18:00,57.4,54.8,29.73,NNE,23,1.8,1.8,91,0.07,,,0.37,WUHU216HW,2013-01-14 23:18:00,
2013-01-14 18:23:00,57.4,55.1,29.73,North,0,1.6,2.2,92,0.07,,,0.37,WUHU216HW,2013-01-14 23:23:00,
2013-01-14 18:28:00,57.4,55.1,29.73,NNE,23,3.1,3.1,92,0.06,,,0.38,WUHU216HW,2013-01-14 23:28:00,
2013-01-14 18:33:00,57.2,54.9,29.73,ENE,68,2.0,3.1,92,0.06,,,0.38,WUHU216HW,2013-01-14 23:33:00,
2013-01-14 18:38:00,57.2,54.9,29.73,North,0,1.6,2.5,92,0.05,,,0.38,WUHU216HW,2013-01-14 23:38:00,
2013-01-14 18:43:00,57.2,54.9,29.73,North,0,0.0,2.5,92,0.05,,,0.39,WUHU216HW,2013-01-14 23:43:00,
2013-01-14 18:48:00,57.2,54.9,29.73,North,0,0.7,2.0,92,0.04,,,0.39,WUHU216HW,2013-01-14 23:48:00,
2013-01-14 18:53:00,57.2,54.9,29.73,NNE,23,0.0,2.5,92,0.03,,,0.39,WUHU216HW,2013-01-14 23:53:00,
2013-01-14 18:58:00,57.2,54.9,29.73,ENE,68,1.8,2.5,92,0.04,,,0.40,WUHU216HW,2013-01-14 23:58:00,
2013-01-14 19:03:00,57.2,54.9,29.73,East,90,1.6,2.5,92,0.05,,,0.40,WUHU216HW,2013-01-15 00:03:00,
2013-01-14 19:08:00,57.1,54.7,29.73,ENE,68,0.2,2.5,92,0.04,,,0.41,WUHU216HW,2013-01-15 00:08:00,
2013-01-14 19:13:00,57.2,54.9,29.73,ENE,68,1.6,1.8,92,0.05,,,0.42,WUHU216HW,2013-01-15 00:13:00,
2013-01-14 19:18:00,57.1,54.7,29.73,NNW,338,1.1,2.7,92,0.06,,,0.43,WUHU216HW,2013-01-15 00:18:00,
2013-01-14 19:23:00,57.2,54.9,29.74,ESE,113,1.3,2.7,92,0.07,,,0.44,WUHU216HW,2013-01-15 00:23:00,
2013-01-14 19:28:00,57.1,54.7,29.73,North,0,1.8,2.5,92,0.08,,,0.45,WUHU216HW,2013-01-15 00:28:00,
2013-01-14 19:33:00,57.1,54.7,29.73,North,0,2.7,2.7,92,0.09,,,0.46,WUHU216HW,2013-01-15 00:33:00,
2013-01-14 19:38:00,57.1,54.7,29.74,North,0,1.1,2.7,92,0.11,,,0.49,WUHU216HW,2013-01-15 00:38:00,
2013-01-14 19:43:00,57.1,54.7,29.73,North,0,3.8,3.8,92,0.14,,,0.52,WUHU216HW,2013-01-15 00:43:00,
2013-01-14 19:48:00,56.9,54.5,29.73,NNW,338,0.7,3.8,92,0.16,,,0.55,WUHU216HW,2013-01-15 00:48:00,
2013-01-14 19:53:00,56.7,54.4,29.74,WNW,293,1.8,3.4,92,0.16,,,0.56,WUHU216HW,2013-01-15 00:53:00,
2013-01-14 19:58:00,56.7,54.4,29.74,North,0,1.8,3.4,92,0.19,,,0.57,WUHU216HW,2013-01-15 00:58:00,
2013-01-14 20:03:00,56.5,54.2,29.74,North,0,2.2,3.4,92,0.21,,,0.62,WUHU216HW,2013-01-15 01:03:00,
2013-01-14 20:08:00,56.2,53.8,29.74,NNW,338,2.2,3.4,92,0.22,,,0.64,WUHU216HW,2013-01-15 01:08:00,
2013-01-14 20:13:00,56.2,53.8,29.74,NNW,338,2.5,3.1,92,0.26,,,0.65,WUHU216HW,2013-01-15 01:13:00,
2013-01-14 20:18:00,56.2,53.8,29.75,NW,315,2.2,4.0,92,0.30,,,0.73,WUHU216HW,2013-01-15 01:18:00,
2013-01-14 20:23:00,55.8,53.5,29.74,NNW,338,1.8,4.0,92,0.33,,,0.76,WUHU216HW,2013-01-15 01:23:00,
2013-01-14 20:28:00,55.6,53.3,29.74,NNW,338,0.7,4.7,92,0.33,,,0.79,WUHU216HW,2013-01-15 01:28:00,
2013-01-14 20:33:00,55.6,53.3,29.74,North,0,2.9,4.7,92,0.33,,,0.79,WUHU216HW,2013-01-15 01:33:00,
2013-01-14 20:38:00,55.6,53.3,29.74,North,0,3.4,5.4,92,0.30,,,0.81,WUHU216HW,2013-01-15 01:38:00,
2013-01-14 20:43:00,55.6,53.3,29.74,South,180,1.1,5.4,92,0.30,,,0.82,WUHU216HW,2013-01-15 01:43:00,
2013-01-14 20:48:00,55.4,53.1,29.75,NNE,23,0.7,5.4,92,0.30,,,0.86,WUHU216HW,2013-01-15 01:48:00,
2013-01-14 20:53:00,55.6,53.3,29.75,North,0,2.0,2.2,92,0.33,,,0.88,WUHU216HW,2013-01-15 01:53:00,
2013-01-14 20:58:00,55.6,53.3,29.75,North,0,2.9,2.9,92,0.35,,,0.93,WUHU216HW,2013-01-15 01:58:00,
2013-01-14 21:03:00,55.4,53.1,29.75,North,0,4.9,4.9,92,0.41,,,1.03,WUHU216HW,2013-01-15 02:03:00,
2013-01-14 21:08:00,55.4,53.1,29.74,North,0,6.9,7.6,92,0.40,,,1.05,WUHU216HW,2013-01-15 02:08:00,
2013-01-14 21:13:00,55.3,52.9,29.74,NNE,23,6.0,7.6,92,0.33,,,1.05,WUHU216HW,2013-01-15 02:13:00,
2013-01-14 21:18:00,55.3,52.9,29.74,North,0,4.5,6.9,92,0.30,,,1.05,WUHU216HW,2013-01-15 02:18:00,
2013-01-14 21:23:00,55.3,52.9,29.74,North,0,4.3,5.8,92,0.28,,,1.05,WUHU216HW,2013-01-15 02:23:00,
2013-01-14 21:28:00,55.1,52.7,29.74,NE,45,5.1,5.8,92,0.26,,,1.06,WUHU216HW,2013-01-15 02:28:00,
2013-01-14 21:33:00,55.1,52.7,29.74,NNE,23,4.3,5.1,92,0.25,,,1.07,WUHU216HW,2013-01-15 02:33:00,
2013-01-14 21:38:00,55.1,52.7,29.74,NNE,23,4.7,6.3,92,0.26,,,1.09,WUHU216HW,2013-01-15 02:38:00,
2013-01-14 21:43:00,54.9,52.6,29.74,NNE,23,7.4,7.4,92,0.26,,,1.10,WUHU216HW,2013-01-15 02:43:00,
2013-01-14 21:48:00,54.9,52.6,29.75,NNE,23,1.8,7.4,92,0.21,,,1.10,WUHU216HW,2013-01-15 02:48:00,
2013-01-14 21:53:00,54.7,52.4,29.75,North,0,4.0,5.8,92,0.16,,,1.10,WUHU216HW,2013-01-15 02:53:00,
2013-01-14 21:58:00,54.7,52.4,29.74,NNE,23,7.6,7.6,92,0.09,,,1.11,WUHU216HW,2013-01-15 02:58:00,
2013-01-14 22:03:00,54.5,52.2,29.74,NE,45,5.1,7.6,92,0.06,,,1.11,WUHU216HW,2013-01-15 03:03:00,
2013-01-14 22:08:00,54.4,52.0,29.74,NE,45,4.9,7.4,92,0.06,,,1.11,WUHU216HW,2013-01-15 03:08:00,
2013-01-14 22:13:00,54.4,52.0,29.74,NNE,23,6.7,6.7,92,0.06,,,1.11,WUHU216HW,2013-01-15 03:13:00,
2013-01-14 22:18:00,54.2,51.8,29.74,East,90,3.6,6.7,92,0.06,,,1.11,WUHU216HW,2013-01-15 03:18:00,
2013-01-14 22:23:00,54.2,51.8,29.75,NE,45,2.0,5.1,92,0.05,,,1.11,WUHU216HW,2013-01-15 03:23:00,
2013-01-14 22:28:00,54.0,51.7,29.76,NE,45,5.6,6.3,92,0.03,,,1.11,WUHU216HW,2013-01-15 03:28:00,
2013-01-14 22:33:00,53.6,51.3,29.75,NE,45,9.4,9.4,92,0.01,,,1.11,WUHU216HW,2013-01-15 03:33:00,
2013-01-14 22:38:00,53.3,50.7,29.75,NE,45,4.5,9.4,91,0.01,,,1.11,WUHU216HW,2013-01-15 03:38:00,
2013-01-14 22:43:00,52.9,50.6,29.76,NNE,23,4.7,6.7,92,0.01,,,1.11,WUHU216HW,2013-01-15 03:43:00,
2013-01-14 22:48:00,52.7,50.4,29.76,ENE,68,5.4,6.5,92,0.00,,,1.11,WUHU216HW,2013-01-15 03:48:00,
2013-01-14 22:53:00,52.6,50.2,29.76,ENE,68,6.9,6.9,92,0.00,,,1.11,WUHU216HW,2013-01-15 03:53:00,
2013-01-14 22:58:00,52.4,50.0,29.76,ENE,68,4.0,8.5,92,0.00,,,1.11,WUHU216HW,2013-01-15 03:58:00,
2013-01-14 23:03:00,52.2,49.9,29.77,North,0,4.7,9.2,92,0.00,,,1.11,WUHU216HW,2013-01-15 04:03:00,
2013-01-14 23:08:00,52.2,49.9,29.78,North,0,3.1,9.2,92,0.00,,,1.11,WUHU216HW,2013-01-15 04:08:00,
2013-01-14 23:13:00,52.0,49.7,29.78,North,0,6.5,7.2,92,0.00,,,1.11,WUHU216HW,2013-01-15 04:13:00,
2013-01-14 23:18:00,51.5,48.9,29.79,NNE,23,4.9,11.6,91,0.00,,,1.11,WUHU216HW,2013-01-15 04:18:00,
2013-01-14 23:23:00,51.3,48.4,29.79,North,0,5.4,11.6,90,0.00,,,1.11,WUHU216HW,2013-01-15 04:23:00,
2013-01-14 23:28:00,50.8,47.9,29.80,North,0,7.6,12.3,90,0.00,,,1.11,WUHU216HW,2013-01-15 04:28:00,
2013-01-14 23:33:00,50.8,48.2,29.80,NE,45,4.7,12.3,91,0.00,,,1.11,WUHU216HW,2013-01-15 04:33:00,
2013-01-14 23:38:00,50.6,48.0,29.80,NNE,23,9.4,10.3,91,0.00,,,1.11,WUHU216HW,2013-01-15 04:38:00,
2013-01-14 23:43:00,50.4,47.8,29.81,North,0,6.9,10.3,91,0.01,,,1.12,WUHU216HW,2013-01-15 04:43:00,
2013-01-14 23:48:00,50.2,47.6,29.80,NNE,23,6.3,9.8,91,0.02,,,1.13,WUHU216HW,2013-01-15 04:48:00,
2013-01-14 23:53:00,50.0,47.4,29.81,North,0,2.5,9.8,91,0.02,,,1.13,WUHU216HW,2013-01-15 04:53:00,
2013-01-14 23:58:00,50.0,47.4,29.81,North,0,4.7,9.2,91,0.03,,,1.14,WUHU216HW,2013-01-15 04:58:00,